Weather History for KRUE - March, 2014

Change the Weather History Date:

Tuesday, March 25, 2014

  Actual Average Record
Temperature  
Mean Temperature 44 °F -  
Max Temperature 55 °F - - ()
Min Temperature 32 °F - - ()
Degree Days  
Heating Degree Days 20    
Moisture  
Dew Point 24 °F    
Average Humidity 47    
Maximum Humidity 73    
Minimum Humidity 20    
Precipitation  
Precipitation 0.00 in - - ()
Sea Level Pressure  
Sea Level Pressure 30.26 in    
Wind  
Wind Speed 7 mph (NW)    
Max Wind Speed 17 mph    
Max Gust Speed 29 mph    
Visibility 10 miles    
Events      
Averages and records for this station are not official NWS values.
T = Trace of Precipitation, MM = Missing Value Source: NWS Daily Summary

Daily Weather History Graph

Daily Weather History Graph

Search for Another Location

Airport or City:

Trip Planner

Search our weather history database for the weather conditions in past years. The results will help you decide how hot, cold, wet, or windy it might be!

Date:

Astronomy

Mar. 25, 2014 Rise Set
Actual Time 7:08 AM CDT 7:28 PM CDT
Civil Twilight 6:43 AM CDT 7:53 PM CDT
Nautical Twilight 6:13 AM CDT 8:23 PM CDT
Astronomical Twilight 5:43 AM CDT 8:53 PM CDT
Moon 3:20 AM CDT (3/25) 2:10 PM CDT (3/25)
Length of Visible Light 13h 10m
Length of Day
12h 19m
Waning Crescent, 32% of the Moon is Illuminated
Mar 25
Waning Crescent
Mar 30
New
Apr 7
First Quarter
Apr 15
Full
Apr 22
Last Quarter

Hourly Weather History & Observations

Time (CDT) Temp. Windchill Dew Point Humidity Pressure Visibility Wind Dir Wind Speed Gust Speed Precip Events Conditions
12:53 AM 50.0 °F - 33.1 °F 52% 30.17 in 10.0 mi NNW 5.8 mph - N/A   Overcast
1:53 AM 46.0 °F 42.5 °F 33.1 °F 61% 30.19 in 10.0 mi NW 6.9 mph - N/A   Clear
2:53 AM 44.1 °F 39.5 °F 33.1 °F 65% 30.19 in 10.0 mi NW 8.1 mph - N/A   Clear
3:53 AM 42.1 °F 37.7 °F 30.9 °F 65% 30.20 in 10.0 mi NW 6.9 mph - N/A   Clear
4:53 AM 37.0 °F 34.5 °F 28.9 °F 73% 30.19 in 10.0 mi NW 3.5 mph - N/A   Clear
5:53 AM 39.9 °F 35.1 °F 27.0 °F 60% 30.24 in 10.0 mi NW 6.9 mph - N/A   Clear
6:53 AM 37.9 °F 34.4 °F 26.1 °F 62% 30.26 in 10.0 mi NW 4.6 mph - N/A   Clear
7:53 AM 37.9 °F 32.7 °F 26.1 °F 62% 30.31 in 10.0 mi North 6.9 mph - N/A   Clear
8:53 AM 41.0 °F 36.4 °F 26.1 °F 55% 30.33 in 10.0 mi NW 6.9 mph - N/A   Clear
9:53 AM 45.0 °F 40.6 °F 26.1 °F 48% 30.34 in 10.0 mi NW 8.1 mph - N/A   Clear
10:53 AM 48.0 °F - 21.9 °F 36% 30.34 in 10.0 mi NW 10.4 mph 19.6 mph N/A   Clear
11:53 AM 51.1 °F - 21.9 °F 32% 30.34 in 10.0 mi WNW 13.8 mph 19.6 mph N/A   Partly Cloudy
12:53 PM 52.0 °F - 21.0 °F 30% 30.32 in 10.0 mi NW 16.1 mph 28.8 mph N/A   Partly Cloudy
1:53 PM 54.0 °F - 21.0 °F 28% 30.31 in 10.0 mi NW 11.5 mph 25.3 mph N/A   Partly Cloudy
2:53 PM 55.0 °F - 21.0 °F 27% 30.28 in 10.0 mi NW 11.5 mph 19.6 mph N/A   Partly Cloudy
3:53 PM 55.0 °F - 18.0 °F 23% 30.25 in 10.0 mi WNW 15.0 mph - N/A   Clear
4:53 PM 55.0 °F - 14.0 °F 20% 30.24 in 10.0 mi NNW 17.3 mph 24.2 mph N/A   Clear
5:53 PM 54.0 °F - 14.0 °F 21% 30.24 in 10.0 mi NW 11.5 mph 16.1 mph N/A   Clear
6:53 PM 53.1 °F - 14.0 °F 21% 30.24 in 10.0 mi NNW 6.9 mph - N/A   Clear
7:53 PM 48.9 °F - 14.0 °F 25% 30.24 in 10.0 mi North 4.6 mph - N/A   Clear
8:53 PM 37.9 °F - 24.1 °F 57% 30.25 in 10.0 mi Calm Calm - N/A   Clear
9:53 PM 35.1 °F - 24.1 °F 64% 30.27 in 10.0 mi Calm Calm - N/A   Clear
10:53 PM 34.0 °F - 23.0 °F 64% 30.28 in 10.0 mi Calm Calm - N/A   Clear
11:53 PM 32.0 °F - 23.0 °F 69% 30.29 in 10.0 mi Calm Calm - N/A   Clear